TimeMDT,TemperatureF,Dew PointF,Humidity,Sea Level PressureIn,VisibilityMPH,Wind Direction,Wind SpeedMPH,Gust SpeedMPH,PrecipitationIn,Events,Conditions,WindDirDegrees,DateUTC
12:53 AM,28.9,21.0,72,30.19,10.0,West,11.5,-,N/A,,Clear,280,2013-03-31 06:53:00
1:53 AM,26.1,19.9,78,30.18,10.0,SW,5.8,-,N/A,,Clear,230,2013-03-31 07:53:00
2:53 AM,24.1,18.0,77,30.21,10.0,WSW,5.8,-,N/A,,Clear,240,2013-03-31 08:53:00
3:53 AM,25.0,18.0,75,30.16,10.0,WNW,5.8,-,N/A,,Clear,300,2013-03-31 09:53:00
4:53 AM,24.1,18.0,77,30.15,10.0,West,5.8,-,N/A,,Clear,270,2013-03-31 10:53:00
5:53 AM,23.0,18.0,81,30.12,10.0,WSW,3.5,-,N/A,,Clear,240,2013-03-31 11:53:00
6:53 AM,27.0,19.0,72,30.10,10.0,SW,11.5,-,N/A,,Clear,220,2013-03-31 12:53:00
7:53 AM,35.1,24.1,64,30.05,10.0,SW,15.0,-,N/A,,Clear,220,2013-03-31 13:53:00
8:53 AM,42.1,27.0,55,30.02,10.0,SSW,13.8,-,N/A,,Clear,210,2013-03-31 14:53:00
9:53 AM,50.0,24.1,36,29.99,10.0,WSW,6.9,-,N/A,,Clear,240,2013-03-31 15:53:00
10:53 AM,55.9,12.9,18,29.96,10.0,WNW,13.8,24.2,N/A,,Clear,290,2013-03-31 16:53:00
11:53 AM,57.9,5.0,12,29.96,10.0,NW,13.8,26.5,N/A,,Clear,320,2013-03-31 17:53:00
12:53 PM,59.0,6.1,12,29.94,10.0,NW,18.4,32.2,N/A,,Clear,310,2013-03-31 18:53:00
1:53 PM,61.0,3.9,10,29.93,10.0,NW,25.3,34.5,N/A,,Clear,310,2013-03-31 19:53:00
2:53 PM,61.0,7.0,12,29.92,10.0,NNW,23.0,38.0,N/A,,Clear,330,2013-03-31 20:53:00
3:53 PM,62.1,7.0,11,29.91,10.0,NNW,24.2,33.4,N/A,,Clear,330,2013-03-31 21:53:00
4:53 PM,61.0,10.0,13,29.91,10.0,NNW,23.0,36.8,N/A,,Clear,330,2013-03-31 22:53:00
5:53 PM,61.0,6.1,11,29.93,10.0,North,15.0,28.8,N/A,,Clear,350,2013-03-31 23:53:00
6:53 PM,55.4,15.8,21,30.00,10.0,NNE,10.4,20.7,N/A,,Clear,20,2013-04-01 00:53:00
7:53 PM,48.0,21.0,34,29.98,10.0,NNE,10.4,-,N/A,,Clear,30,2013-04-01 01:53:00
8:53 PM,44.1,21.0,40,30.00,10.0,NNE,16.1,23.0,N/A,,Clear,20,2013-04-01 02:53:00
9:53 PM,39.0,25.0,57,30.02,10.0,NNE,10.4,-,N/A,,Clear,30,2013-04-01 03:53:00
10:53 PM,35.1,24.1,64,30.04,10.0,NNE,6.9,-,N/A,,Clear,20,2013-04-01 04:53:00
11:53 PM,35.1,24.1,64,30.04,10.0,Calm,Calm,-,N/A,,Clear,0,2013-04-01 05:53:00